Weather History for KMWA - November, 2012

Change the Weather History Date:

Saturday, November 17, 2012

  Actual Average Record
Temperature  
Mean Temperature 44 °F -  
Max Temperature 59 °F 53 °F 77 °F (2001)
Min Temperature 28 °F 33 °F 15 °F (1989)
Degree Days  
Heating Degree Days 22    
Moisture  
Dew Point 32 °F    
Average Humidity 82    
Maximum Humidity 100    
Minimum Humidity 31    
Precipitation  
Precipitation 0.00 in - - ()
Sea Level Pressure  
Sea Level Pressure 30.46 in    
Wind  
Wind Speed 1 mph (East)    
Max Wind Speed 6 mph    
Max Gust Speed -    
Visibility 8 miles    
Events      
Averages and records for this station are not official NWS values.
T = Trace of Precipitation, MM = Missing Value Source: NWS Daily Summary

Daily Weather History Graph

Daily Weather History Graph

Search for Another Location

Airport or City:

Trip Planner

Search our weather history database for the weather conditions in past years. The results will help you decide how hot, cold, wet, or windy it might be!

Date:

Astronomy

Nov. 17, 2012 Rise Set
Actual Time 6:38 AM CST 4:43 PM CST
Civil Twilight 6:10 AM CST 5:11 PM CST
Nautical Twilight 5:38 AM CST 5:42 PM CST
Astronomical Twilight 5:07 AM CST 6:14 PM CST
Moon 10:23 AM CST (11/17) 8:52 PM CST (11/17)
Length of Visible Light 11h 00m
Length of Day
10h 04m
Waxing Crescent, 20% of the Moon is Illuminated
Nov 17
Waxing Crescent
Nov 20
First Quarter
Nov 28
Full
Dec 6
Last Quarter
Dec 13
New

Hourly Weather History & Observations

Time (CST) Temp. Windchill Dew Point Humidity Pressure Visibility Wind Dir Wind Speed Gust Speed Precip Events Conditions
12:15 AM 33.8 °F - 32.0 °F 93% 30.46 in 5.0 mi Calm Calm - N/A   Clear
12:35 AM 32.0 °F - 32.0 °F 100% 30.46 in 5.0 mi Calm Calm - N/A   Clear
12:55 AM 32.0 °F - 30.2 °F 93% 30.46 in 5.0 mi Calm Calm - N/A   Clear
1:15 AM 32.0 °F - 32.0 °F 100% 30.46 in 4.0 mi Calm Calm - N/A   Clear
1:35 AM 32.0 °F - 32.0 °F 100% 30.47 in 2.5 mi Calm Calm - N/A   Clear
1:55 AM 32.0 °F - 32.0 °F 100% 30.47 in 5.0 mi Calm Calm - N/A   Clear
2:15 AM 32.0 °F - 30.2 °F 93% 30.47 in 5.0 mi Calm Calm - N/A   Clear
2:35 AM 32.0 °F - 30.2 °F 93% 30.47 in 5.0 mi Calm Calm - N/A   Clear
2:55 AM 32.0 °F - 32.0 °F 100% 30.47 in 7.0 mi Calm Calm - N/A   Clear
3:15 AM 32.0 °F - 32.0 °F 100% 30.47 in 5.0 mi Calm Calm - N/A   Clear
3:35 AM 32.0 °F - 30.2 °F 93% 30.47 in 5.0 mi Calm Calm - N/A   Clear
3:55 AM 30.2 °F - 30.2 °F 100% 30.47 in 4.0 mi Calm Calm - N/A   Clear
4:15 AM 30.2 °F - 30.2 °F 100% 30.48 in 4.0 mi Calm Calm - N/A   Clear
4:35 AM 30.2 °F - 28.4 °F 93% 30.48 in 4.0 mi Calm Calm - N/A   Clear
4:55 AM 30.2 °F - 30.2 °F 100% 30.48 in 3.0 mi Calm Calm - N/A   Clear
5:15 AM 30.2 °F - 28.4 °F 93% 30.49 in 3.0 mi Calm Calm - N/A   Clear
5:35 AM 30.2 °F - 30.2 °F 100% 30.49 in 2.5 mi Calm Calm - N/A   Clear
6:54 AM 28.4 °F - 28.4 °F 100% 30.50 in 5.0 mi Calm Calm - N/A   Clear
7:53 AM 33.8 °F - 33.8 °F 100% 30.52 in 5.0 mi Calm Calm - N/A   Clear
8:54 AM 39.2 °F - 35.6 °F 87% 30.52 in 6.0 mi Calm Calm - N/A   Clear
9:54 AM 44.6 °F - 35.6 °F 71% 30.53 in 7.0 mi Calm Calm - N/A   Clear
10:52 AM 50.0 °F - 35.6 °F 58% 30.52 in 10.0 mi Calm Calm - N/A   Clear
11:54 AM 53.6 °F - 35.6 °F 51% 30.48 in 12.0 mi East 5.8 mph - N/A   Partly Cloudy
12:55 PM 57.2 °F - 28.4 °F 33% 30.45 in 15.0 mi East 5.8 mph - N/A   Clear
1:58 PM 59.0 °F - 28.4 °F 31% 30.43 in 15.0 mi ESE 5.8 mph - N/A   Clear
3:57 PM 57.2 °F - 28.4 °F 33% 30.43 in 15.0 mi East 5.8 mph - N/A   Clear
4:50 PM 50.0 °F - 32.0 °F 50% 30.42 in 15.0 mi NNE 5.8 mph - N/A   Scattered Clouds
5:50 PM 50.0 °F - 32.0 °F 50% 30.42 in 15.0 mi ENE 5.8 mph - N/A   Scattered Clouds
6:55 PM 42.8 °F - 32.0 °F 66% 30.42 in 10.0 mi Calm Calm - N/A   Clear
7:15 PM 41.0 °F - 32.0 °F 70% 30.42 in 10.0 mi Calm Calm - N/A   Clear
7:35 PM 41.0 °F - 32.0 °F 70% 30.42 in 10.0 mi Calm Calm - N/A   Clear
7:55 PM 37.4 °F - 32.0 °F 81% 30.42 in 10.0 mi Calm Calm - N/A   Clear
8:15 PM 37.4 °F - 33.8 °F 87% 30.43 in 10.0 mi Calm Calm - N/A   Clear
8:35 PM 35.6 °F - 32.0 °F 87% 30.43 in 10.0 mi Calm Calm - N/A   Clear
8:55 PM 37.4 °F - 32.0 °F 81% 30.43 in 10.0 mi Calm Calm - N/A   Clear
9:15 PM 35.6 °F 32.8 °F 32.0 °F 87% 30.43 in 10.0 mi East 3.5 mph - N/A   Clear
9:35 PM 39.2 °F - 33.8 °F 81% 30.43 in 10.0 mi Calm Calm - N/A   Clear
9:55 PM 37.4 °F - 32.0 °F 81% 30.43 in 10.0 mi Calm Calm - N/A   Clear
10:15 PM 37.4 °F 34.9 °F 32.0 °F 81% 30.43 in 7.0 mi East 3.5 mph - N/A   Clear
10:35 PM 39.2 °F 35.9 °F 32.0 °F 75% 30.43 in 10.0 mi West 4.6 mph - N/A   Clear
10:55 PM 35.6 °F - 32.0 °F 87% 30.43 in 10.0 mi Calm Calm - N/A   Clear
11:15 PM 33.8 °F - 32.0 °F 93% 30.43 in 10.0 mi Calm Calm - N/A   Clear
11:35 PM 33.8 °F - 32.0 °F 93% 30.43 in 10.0 mi Calm Calm - N/A   Clear
11:55 PM 35.6 °F - 33.8 °F 93% 30.43 in 10.0 mi Calm Calm - N/A   Clear